Location: Myrnam
(53.6612°N, 111.2289°W)
Time: 09:35:13
(UTC+00:00)

NOAA 15 - Visible Passes

Search period start: 01 December 2023 00:00
Search period end: 11 December 2023 00:00
Orbit: 796 x 811 km, 98.6° (Epoch: 30 November)

Date Brightness Start Highest point End Pass type
(mag) Time Alt. Az. Time Alt. Az. Time Alt. Az.
01 Dec 5.0 01:04:09 10° SE 01:09:01 38° ENE 01:13:53 10° N visible
01 Dec 5.7 02:43:43 10° S 02:48:45 43° W 02:53:49 10° NNW visible
02 Dec 5.5 00:39:18 10° ESE 00:43:40 27° ENE 00:48:02 10° N visible
02 Dec 4.9 02:17:47 10° S 02:23:03 66° WSW 02:28:21 10° NNW visible
02 Dec 7.5 04:01:44 10° WSW 04:03:51 12° W 04:06:00 10° WNW visible
02 Dec 6.7 14:26:09 10° NNE 14:30:45 30° E 14:35:19 10° SSE visible
03 Dec 5.9 00:14:47 10° E 00:18:24 19° NE 00:22:01 10° N visible
03 Dec 4.5 01:52:09 10° SSE 01:57:27 82° ENE 02:02:46 10° NNW visible
03 Dec 7.0 03:34:07 10° SW 03:37:52 19° W 03:41:38 10° NW visible
03 Dec 7.3 14:01:06 10° NE 14:04:53 19° E 14:08:37 10° SE visible
03 Dec 6.2 23:50:42 10° ENE 23:53:13 14° NE 23:55:43 10° NNE visible
04 Dec 4.6 01:26:47 10° SE 01:31:56 55° ENE 01:37:06 10° N visible
04 Dec 6.3 03:07:23 10° SSW 03:12:00 29° W 03:16:36 10° NNW visible
04 Dec 7.6 13:36:45 10° ENE 13:38:53 12° E 13:41:01 10° ESE visible
05 Dec 5.1 01:01:41 10° SE 01:06:30 37° ENE 01:11:20 10° N visible
05 Dec 5.6 02:41:09 10° S 02:46:12 45° W 02:51:18 10° NNW visible
06 Dec 5.5 00:36:52 10° ESE 00:41:10 26° NE 00:45:27 10° N visible
06 Dec 4.8 02:15:14 10° S 02:20:31 69° WSW 02:25:49 10° NNW visible
06 Dec 7.4 03:58:56 10° WSW 04:01:16 13° W 04:03:38 10° WNW visible
06 Dec 6.8 14:23:39 10° NNE 14:28:11 28° E 14:32:41 10° SSE visible
07 Dec 5.9 00:12:22 10° E 00:15:53 18° NE 00:19:25 10° N visible
07 Dec 4.4 01:49:37 10° SSE 01:54:55 79° ENE 02:00:14 10° NNW visible
07 Dec 6.9 03:31:26 10° SW 03:35:18 20° W 03:39:10 10° NW visible
07 Dec 7.3 13:58:38 10° NE 14:02:17 19° E 14:05:55 10° SE visible
07 Dec 6.2 23:48:21 10° ENE 23:50:43 13° NE 23:53:04 10° NNE visible
08 Dec 4.7 01:24:17 10° SE 01:29:24 53° ENE 01:34:32 10° N visible
08 Dec 6.3 03:04:46 10° SSW 03:09:25 31° W 03:14:06 10° NNW visible
08 Dec 7.7 13:34:26 10° ENE 13:36:17 12° E 13:38:08 10° ESE visible
09 Dec 5.1 00:59:12 10° SE 01:03:58 36° ENE 01:08:45 10° N visible
09 Dec 5.5 02:38:33 10° S 02:43:39 47° W 02:48:45 10° NNW visible
09 Dec 6.1 14:46:25 10° NNE 14:51:24 42° E 14:56:21 10° SSE visible
10 Dec 5.6 00:34:24 10° ESE 00:38:38 25° NE 00:42:51 10° N visible
10 Dec 4.7 02:12:40 10° S 02:17:58 72° WSW 02:23:16 10° NNW visible
10 Dec 7.4 03:56:08 10° WSW 03:58:41 13° W 04:01:14 10° NW visible
10 Dec 6.9 14:21:08 10° NE 14:25:35 27° E 14:30:02 10° SSE visible
